Weather in Anna

Russia / Primorsky Krai     42°50′44″N   132°34′16″E
temp.,
°C
wind,
m/s
gust,
m/s
humid.,
%
clouds,
%
prec.,
mm/h
press.,
hPa
HPBL,
m
25 june, fri
fri2501:00+15sw129533 0.0 101111
04:00+15ssw12945 0.0 101111
07:00+15se11945 0.0 101213
10:00+16s12915 0.0 101254
13:00+17ssw23897 0.0 101169
16:00+17s22883 0.0 101173
19:00+17ssw22871 0.0 101135
22:00+16s22910 0.0 101217
26 june, sat
sat2601:00+15e22920 0.0 101211
04:00+15ene33920 0.0 101214
07:00+15e22910 0.0 101216
10:00+16sse22880 0.0 101354
13:00+17ssw12892 0.0 101365
16:00+17ssw2388100 0.0 101268
19:00+17ssw2388100 0.0 101243
22:00+16ssw1289100 0.0 101211
27 june, sun
sun2701:00+16se229037 0.0 101311
04:00+15e449356 0.0 101232
07:00+14e449296 0.0 101347
10:00+14ese569118 0.0 1012132
13:00+15se44907 0.0 1012124
16:00+15se3488100 0.0 1011105
19:00+16se228898 0.0 100931
22:00+15ne11885 0.0 101011
28 june, mon
mon2801:00+15nne22853 0.0 100911
04:00+15nne22824 0.0 100813
07:00+15nw22805 0.0 100817
10:00+16wnw23785 0.0 100863
13:00+17w338522 0.0 100886
16:00+18se33773 0.0 1007153
19:00+16ese568320 0.0 1007122
22:00+14ese46873 0.0 100990
29 june, tue
tue2901:00+14ese34877 0.0 100981
04:00+14ese348125 0.0 100974
07:00+14ese458168 0.0 1010149
10:00+15se34783 0.0 1010156
13:00+14se688874 0.0 1010247
16:00+14se799049 0.0 1009279
19:00+14se81191100 0.0 1010324
22:00+14ese91391100 0.0 1010335